Regional Weather Roundup
Issued by NWS Sterling, VA

Home | Current Version | Previous Version | Text Only | Print | Product List | Glossary On
Versions: 1 2 3 4 5 6 7 8 9 10 11 12 13 14 15 16 17 18 19 20 21 22 23 24 25 26 27 28 29 30 31 32 33 34 35 36 37 38 39 40 41 42 43 44 45 46 47 48 49 50
000
ASUS41 KLWX 010110
RWRLWX

REGIONAL WEATHER ROUNDUP
NATIONAL WEATHER SERVICE BALTIMORE MD/WASHINGTON DC
900 PM EDT WED AUG 31 2016

Note: "FAIR" indicates few or no clouds below 12,000 feet
with no significant weather and/or obstructions to visibility.
 TC=TEMPERATURE CELSIUS

 * =Non NWS site. Station does not report precipitation (e.g. rain,
    snow, etc.), thunder, or fog.

DCZ001-MDZ009-015-VAZ040>042-051-053>054-010200-
WASHINGTON METRO

CITY           SKY/WX    TMP DP  RH WIND       PRES   REMARKS
WASHINGTON NAT MOCLDY    84  71  65 S9        29.88S
DULLES         PTCLDY    82  69  64 SE6       29.88S
ANDREWS AFB    PTCLDY    79  70  74 SE8       29.89R
FT BELVOIR     MOCLDY    79  71  76 SE7       29.88R
QUANTICO       CLOUDY    83  74  74 S10       29.88S THUNDER
COLLEGE PARK*  MOCLDY    79  70  73 CALM      29.88S
LEESBURG*      CLEAR     82  73  74 CALM      29.89S
MANASSAS*      CLEAR     81  72  74 CALM      29.88
GAITHERSBURG*  CLOUDY    79  66  65 SE3       29.93S

$$

MDZ006>007-011-014-010200-
BALTIMORE METRO

CITY           SKY/WX    TMP DP  RH WIND       PRES   REMARKS
BWI AIRPORT    PTCLDY    79  69  71 SE5       29.89R
MD SCIENCE CTR   N/A     83  68  60 MISG      29.89
MARTIN STATE   MOCLDY    81  73  78 SW3       29.91R
ANNAPOLIS      PTCLDY    83  69  62 S10       29.88S
FORT MEADE*    PTCLDY    73  70  88 SE3       29.91S

$$

MDZ012-015-019>023-010200-
MARYLAND EASTERN SHORE

CITY           SKY/WX    TMP DP  RH WIND       PRES   REMARKS
OCEAN CITY     CLOUDY    79  69  71 VRB5      29.93R
SALISBURY      MOCLDY    74  69  85 SE3       29.93R
BAY BRIDGE AP* PTCLDY    82  70  65 MISG      29.89S
CAMBRIDGE*     CLEAR     73  68  83 SE6       29.91S

$$

MDZ017>025-010200-
SOUTHERN MARYLAND

CITY           SKY/WX    TMP DP  RH WIND       PRES   REMARKS
PATUXENT RIVER PTCLDY    79  65  62 S7        29.90R
ST INIGOES     CLEAR     81  71  71 S8        29.89S
LEONARDTOWN*   CLEAR     77  64  65 SE3       29.92S

$$

MDZ003>005-010200-
NORTH CENTRAL MARYLAND

CITY           SKY/WX    TMP DP  RH WIND       PRES   REMARKS
FREDERICK*     CLOUDY    77  75  94 NE3       29.92R
HAGERSTOWN APT CLOUDY    79  64  60 N6        29.91R

$$

MDZ501>502-010200-
WESTERN MARYLAND

CITY           SKY/WX    TMP DP  RH WIND       PRES   REMARKS
OAKLAND*       CLOUDY    70  55  60 SE3       30.03S
CUMBERLAND*    CLOUDY    81  55  41 CALM      29.95S

$$

VAZ025>031-010200-
SHENANDOAH VALLEY

CITY           SKY/WX    TMP DP  RH WIND       PRES   REMARKS
WINCHESTER*    CLOUDY    79  66  65 N3        29.90S
FRONT ROYAL*   FAIR      77  70  78 CALM      29.88F
LURAY*         FAIR      79  68  69 S3        29.91R
NEW MARKET*    FAIR     N/A N/A N/A SW3       29.90R
STAUNTON*      MOCLDY    71  69  95 CALM      29.95S
WAYNESBORO*    FAIR      72  67  86 CALM      29.95R

$$

WVZ021-048>050-054>055-010200-
EASTERN WEST VIRGINIA PANHANDLE

CITY           SKY/WX    TMP DP  RH WIND       PRES   REMARKS
MARTINSBURG    CLOUDY    80  65  59 NE6       29.89S
PETERSBURG*    CLOUDY    76  66  71 NW3       29.92S

$$

VAZ036>039-050-010200-
CENTRAL FOOTHILLS

CITY           SKY/WX    TMP DP  RH WIND       PRES   REMARKS
CHARLOTTESVILL MOCLDY    77  69  76 E5        29.91R
CULPEPER*      CLOUDY    74  71  91 CALM      29.90R
ORANGE*        NOT AVBL
GORDONSVILLE*  NOT AVBL
WARRENTON*     FAIR      74  65  73 CALM      29.88S

$$

VAZ055>057-010200-
NORTH AND CENTRAL PIEDMONT

CITY           SKY/WX    TMP DP  RH WIND       PRES   REMARKS
FREDERICKSBRG* RAIN      77  73  88 E9        29.88R
STAFFORD*      CLOUDY    79  71  75 S7        29.93R

$$

NCZ024-NYZ072-PAZ021-071-VAZ022-071-010200-
OTHER REGIONAL OBSERVATIONS

CITY           SKY/WX    TMP DP  RH WIND       PRES   REMARKS
NEW YORK CITY  CLOUDY    80  66  62 CALM      29.91S
PHILADELPHIA   LGT RAIN  80  67  64 SW13      29.92R
PITTSBURGH     LGT RAIN  70  66  87 N3        29.96R
ROANOKE        TSTM      76  70  82 NE12      29.97R
RICHMOND       MOCLDY    80  69  69 SE9       29.89S
RALEIGH        MOCLDY    81  69  67 S7        29.93R

$$

ANZ530>537-010200-
MARINE OBSERVATIONS

STATION/POSITION TIME  TEMP    WIND        PRES
                       AIR SEA DIR/SP/G
                 (UTC) (F)     (DEG/KT/KT) (MB)
THOMAS PT LIGHT  0100   83 83  170/ 19/ 21 1013.1F
BALT KEY BRIDGE  0018   83                   N/A
COVE POINT       0018   82                   N/A
LEWISETTA        0018   81 85                N/A
SOLOMONS ISLAND  0012   82 85                N/A

$$




USA.gov is the U.S. government's official web portal to all federal, state and local government web resources and services.